Time,TemperatureF,DewpointF,PressureIn,WindDirection,WindDirectionDegrees,WindSpeedMPH,WindSpeedGustMPH,Humidity,HourlyPrecipIn,Conditions,Clouds,dailyrainin,SolarRadiationWatts/m^2,SoftwareType,DateUTC
2013-01-19 00:03:00,37.3,31.4,29.82,SW,227,0.4,2.4,79,0.00,CLR,,0.00,0.0,WeatherDisplay:10.37,2013-01-19 06:03:00,
2013-01-19 00:08:00,37.2,31.3,29.82,SW,227,0.0,0.0,79,0.00,CLR,,0.00,0.0,WeatherDisplay:10.37,2013-01-19 06:08:00,
2013-01-19 00:13:00,36.9,31.0,29.82,SW,227,2.7,3.6,79,0.00,CLR,,0.00,0.0,WeatherDisplay:10.37,2013-01-19 06:13:00,
2013-01-19 00:18:00,36.8,31.2,29.82,SW,227,1.6,3.6,80,0.00,CLR,,0.00,0.0,WeatherDisplay:10.37,2013-01-19 06:18:00,
2013-01-19 00:23:00,36.8,31.2,29.82,SW,227,0.5,2.4,80,0.00,CLR,,0.00,0.0,WeatherDisplay:10.37,2013-01-19 06:23:00,
2013-01-19 00:28:00,36.5,30.9,29.82,SW,227,2.7,3.6,80,0.00,CLR,,0.00,0.0,WeatherDisplay:10.37,2013-01-19 06:28:00,
2013-01-19 00:33:00,36.5,30.9,29.82,SW,225,3.7,4.8,80,0.00,CLR,,0.00,0.0,WeatherDisplay:10.37,2013-01-19 06:33:00,
2013-01-19 00:38:00,36.5,30.9,29.82,SW,225,1.0,3.5,80,0.00,CLR,,0.00,0.0,WeatherDisplay:10.37,2013-01-19 06:38:00,
2013-01-19 00:43:00,36.5,30.9,29.82,SW,226,3.0,3.6,80,0.00,CLR,,0.00,0.0,WeatherDisplay:10.37,2013-01-19 06:43:00,
2013-01-19 00:48:00,36.3,31.0,29.82,SW,226,0.0,0.0,81,0.00,CLR,,0.00,0.0,WeatherDisplay:10.37,2013-01-19 06:48:00,
2013-01-19 00:53:00,36.3,31.0,29.82,SW,226,1.8,2.4,81,0.00,CLR,,0.00,0.0,WeatherDisplay:10.37,2013-01-19 06:53:00,
2013-01-19 00:59:00,36.2,30.9,29.82,SW,225,0.0,0.0,81,0.00,CLR,,0.00,0.0,WeatherDisplay:10.37,2013-01-19 06:59:00,
2013-01-19 01:04:00,36.2,30.9,29.83,SW,225,0.0,0.0,81,0.00,CLR,,0.00,0.0,WeatherDisplay:10.37,2013-01-19 07:04:00,
2013-01-19 01:09:00,36.2,30.9,29.83,SW,225,0.0,0.0,81,0.00,CLR,,0.00,0.0,WeatherDisplay:10.37,2013-01-19 07:09:00,
2013-01-19 01:14:00,36.0,30.7,29.83,SW,226,0.0,0.0,81,0.00,CLR,,0.00,0.0,WeatherDisplay:10.37,2013-01-19 07:14:00,
2013-01-19 01:19:00,35.9,30.6,29.83,SW,225,0.0,0.0,81,0.00,CLR,,0.00,0.0,WeatherDisplay:10.37,2013-01-19 07:19:00,
2013-01-19 01:24:00,35.8,30.8,29.83,SW,225,0.0,0.0,82,0.00,CLR,,0.00,0.0,WeatherDisplay:10.37,2013-01-19 07:24:00,
2013-01-19 01:29:00,35.8,30.8,29.83,SW,225,0.0,2.3,82,0.00,CLR,,0.00,0.0,WeatherDisplay:10.37,2013-01-19 07:29:00,
2013-01-19 01:34:00,35.8,30.8,29.83,SW,225,0.0,0.0,82,0.00,CLR,,0.00,0.0,WeatherDisplay:10.37,2013-01-19 07:34:00,
2013-01-19 01:39:00,35.9,30.9,29.83,SW,225,0.0,0.0,82,0.00,CLR,,0.00,0.0,WeatherDisplay:10.37,2013-01-19 07:39:00,
2013-01-19 01:44:00,35.9,30.9,29.83,SW,225,0.0,0.0,82,0.00,CLR,,0.00,0.0,WeatherDisplay:10.37,2013-01-19 07:44:00,
2013-01-19 01:49:00,35.8,30.8,29.84,SW,225,0.0,0.0,82,0.00,CLR,,0.00,0.0,WeatherDisplay:10.37,2013-01-19 07:49:00,
2013-01-19 01:54:00,35.6,30.6,29.84,SW,225,0.0,1.2,82,0.00,CLR,,0.00,0.0,WeatherDisplay:10.37,2013-01-19 07:54:00,
2013-01-19 01:59:00,35.6,30.9,29.84,SW,226,0.0,0.0,83,0.00,CLR,,0.00,0.0,WeatherDisplay:10.37,2013-01-19 07:59:00,
2013-01-19 02:04:00,35.8,31.1,29.84,SSW,204,3.1,3.6,83,0.00,CLR,,0.00,0.0,WeatherDisplay:10.37,2013-01-19 08:04:00,
2013-01-19 02:09:00,35.8,31.1,29.84,SSW,204,0.7,3.6,83,0.00,CLR,,0.00,0.0,WeatherDisplay:10.37,2013-01-19 08:09:00,
2013-01-19 02:14:00,35.9,31.2,29.84,SSW,205,2.4,3.6,83,0.00,CLR,,0.00,0.0,WeatherDisplay:10.37,2013-01-19 08:14:00,
2013-01-19 02:19:00,35.9,31.2,29.85,SSW,205,2.2,3.6,83,0.00,CLR,,0.00,0.0,WeatherDisplay:10.37,2013-01-19 08:19:00,
2013-01-19 02:24:00,35.9,31.2,29.85,SSW,205,1.8,3.6,83,0.00,CLR,,0.00,0.0,WeatherDisplay:10.37,2013-01-19 08:24:00,
2013-01-19 02:29:00,35.9,31.2,29.85,SSW,205,0.3,2.4,83,0.00,CLR,,0.00,0.0,WeatherDisplay:10.37,2013-01-19 08:29:00,
2013-01-19 02:34:00,35.9,31.2,29.85,SSW,205,0.0,0.0,83,0.00,CLR,,0.00,0.0,WeatherDisplay:10.37,2013-01-19 08:34:00,
2013-01-19 02:39:00,35.9,31.2,29.85,SSW,205,1.2,2.4,83,0.00,CLR,,0.00,0.0,WeatherDisplay:10.37,2013-01-19 08:39:00,
2013-01-19 02:44:00,35.9,31.2,29.85,SSW,205,0.0,0.0,83,0.00,CLR,,0.00,0.0,WeatherDisplay:10.37,2013-01-19 08:44:00,
2013-01-19 02:49:00,35.9,31.2,29.84,SSW,205,0.0,0.0,83,0.00,CLR,,0.00,0.0,WeatherDisplay:10.37,2013-01-19 08:49:00,
2013-01-19 02:54:00,35.9,31.2,29.84,SSW,205,0.0,1.2,83,0.00,CLR,,0.00,0.0,WeatherDisplay:10.37,2013-01-19 08:54:00,
2013-01-19 02:59:00,35.9,31.2,29.84,SSW,205,0.1,1.2,83,0.00,CLR,,0.00,0.0,WeatherDisplay:10.37,2013-01-19 08:59:00,
2013-01-19 03:04:00,35.9,31.2,29.83,SSW,205,0.0,0.0,83,0.00,CLR,,0.00,0.0,WeatherDisplay:10.37,2013-01-19 09:04:00,
2013-01-19 03:09:00,35.9,31.2,29.83,SSW,205,0.0,0.0,83,0.00,CLR,,0.00,0.0,WeatherDisplay:10.37,2013-01-19 09:09:00,
2013-01-19 03:14:00,35.9,30.9,29.83,SSW,205,0.3,2.3,82,0.00,CLR,,0.00,0.0,WeatherDisplay:10.37,2013-01-19 09:14:00,
2013-01-19 03:19:00,35.9,30.9,29.83,SSW,205,0.0,0.0,82,0.00,CLR,,0.00,0.0,WeatherDisplay:10.37,2013-01-19 09:19:00,
2013-01-19 03:24:00,35.9,30.9,29.83,SSW,205,0.0,0.0,82,0.00,CLR,,0.00,0.0,WeatherDisplay:10.37,2013-01-19 09:24:00,
2013-01-19 03:29:00,35.8,30.8,29.83,SSW,205,0.0,0.0,82,0.00,CLR,,0.00,0.0,WeatherDisplay:10.37,2013-01-19 09:29:00,
2013-01-19 03:34:00,35.8,31.1,29.82,SSW,205,0.0,0.0,83,0.00,CLR,,0.00,0.0,WeatherDisplay:10.37,2013-01-19 09:34:00,
2013-01-19 03:39:00,35.8,30.8,29.82,SSW,205,0.0,0.0,82,0.00,CLR,,0.00,0.0,WeatherDisplay:10.37,2013-01-19 09:39:00,
2013-01-19 03:44:00,35.8,30.8,29.82,SSW,205,0.1,1.2,82,0.00,CLR,,0.00,0.0,WeatherDisplay:10.37,2013-01-19 09:44:00,
2013-01-19 03:49:00,35.8,31.1,29.82,SSW,205,3.3,3.6,83,0.00,CLR,,0.00,0.0,WeatherDisplay:10.37,2013-01-19 09:49:00,
2013-01-19 03:54:00,35.9,30.9,29.82,SSW,205,3.0,3.6,82,0.00,CLR,,0.00,0.0,WeatherDisplay:10.37,2013-01-19 09:54:00,
2013-01-19 03:59:00,35.8,30.8,29.82,SSW,205,0.0,0.0,82,0.00,CLR,,0.00,0.0,WeatherDisplay:10.37,2013-01-19 09:59:00,
2013-01-19 04:04:00,35.6,30.6,29.82,SSW,205,0.0,0.0,82,0.00,CLR,,0.00,0.0,WeatherDisplay:10.37,2013-01-19 10:04:00,
2013-01-19 04:09:00,35.5,30.5,29.82,SSW,205,0.0,0.0,82,0.00,CLR,,0.00,0.0,WeatherDisplay:10.37,2013-01-19 10:09:00,
2013-01-19 04:14:00,35.3,30.7,29.82,SSW,205,0.0,0.0,83,0.00,CLR,,0.00,0.0,WeatherDisplay:10.37,2013-01-19 10:14:00,
2013-01-19 04:19:00,35.3,30.7,29.82,SSW,205,0.0,0.0,83,0.00,CLR,,0.00,0.0,WeatherDisplay:10.37,2013-01-19 10:19:00,
2013-01-19 04:24:00,35.2,30.6,29.82,SSW,205,0.0,1.2,83,0.00,CLR,,0.00,0.0,WeatherDisplay:10.37,2013-01-19 10:24:00,
2013-01-19 04:29:00,35.2,30.6,29.82,SSW,205,0.0,0.0,83,0.00,CLR,,0.00,0.0,WeatherDisplay:10.37,2013-01-19 10:29:00,
2013-01-19 04:34:00,35.0,30.4,29.82,SSW,205,0.0,0.0,83,0.00,CLR,,0.00,0.0,WeatherDisplay:10.37,2013-01-19 10:34:00,
2013-01-19 04:39:00,35.0,30.4,29.82,SSW,205,0.5,1.2,83,0.00,CLR,,0.00,0.0,WeatherDisplay:10.37,2013-01-19 10:39:00,
2013-01-19 04:44:00,35.0,30.7,29.82,SSW,206,0.0,2.3,84,0.00,CLR,,0.00,0.0,WeatherDisplay:10.37,2013-01-19 10:44:00,
2013-01-19 04:49:00,35.2,30.9,29.80,SSW,206,0.0,2.3,84,0.00,CLR,,0.00,0.0,WeatherDisplay:10.37,2013-01-19 10:49:00,
2013-01-19 04:54:00,35.3,30.9,29.80,SSW,206,0.1,1.2,84,0.00,CLR,,0.00,0.0,WeatherDisplay:10.37,2013-01-19 10:54:00,
2013-01-19 04:59:00,35.5,30.8,29.80,SSW,206,1.2,3.6,83,0.00,CLR,,0.00,0.0,WeatherDisplay:10.37,2013-01-19 10:59:00,
2013-01-19 05:00:00,35.5,30.8,29.80,SSW,203,1.0,1.0,83,0.00,,CL,0.00,,WeatherDisplay:10.37,2013-01-19 11:00:00,
2013-01-19 05:01:00,35.5,30.8,29.80,SSW,203,1.0,3.0,83,0.00,CL,CL,0.00,,WeatherDisplay:10.37,2013-01-19 11:01:00,
2013-01-19 05:04:00,35.5,30.8,29.80,SSW,206,0.3,1.2,83,0.00,CLR,,0.00,0.0,WeatherDisplay:10.37,2013-01-19 11:04:00,
2013-01-19 05:09:00,35.5,30.8,29.80,SSW,206,0.0,0.0,83,0.00,CLR,,0.00,0.0,WeatherDisplay:10.37,2013-01-19 11:09:00,
2013-01-19 06:01:00,35.5,31.1,29.80,South,180,0.0,0.0,84,0.00,CL,CL,0.00,,WeatherDisplay:10.37,2013-01-19 12:01:00,
2013-01-19 06:47:00,35.0,30.9,29.78,South,188,0.0,2.0,85,0.00,CLR,,0.00,0.0,WeatherDisplay:10.37,2013-01-19 12:47:00,
2013-01-19 06:48:00,34.9,30.8,29.78,South,188,0.4,6.0,85,0.00,CLR,,0.00,0.0,WeatherDisplay:10.37,2013-01-19 12:48:00,
2013-01-19 06:49:00,34.7,30.7,29.78,South,188,0.1,2.3,85,0.00,CLR,,0.00,0.0,WeatherDisplay:10.37,2013-01-19 12:49:00,
2013-01-19 06:54:00,34.7,30.9,29.78,South,186,0.6,2.4,86,0.00,CLR,,0.00,0.0,WeatherDisplay:10.37,2013-01-19 12:54:00,
2013-01-19 06:59:00,34.9,31.1,29.78,SSW,200,0.0,3.5,86,0.00,CLR,,0.00,0.0,WeatherDisplay:10.37,2013-01-19 12:59:00,
2013-01-19 07:01:00,35.0,31.2,29.78,SSW,203,0.0,0.0,86,0.00,CL,CL,0.00,,WeatherDisplay:10.37,2013-01-19 13:01:00,
2013-01-19 07:04:00,35.2,31.4,29.78,SSW,200,1.4,4.8,86,0.00,CLR,,0.00,0.0,WeatherDisplay:10.37,2013-01-19 13:04:00,
2013-01-19 07:09:00,35.2,31.1,29.78,SSW,200,0.0,0.0,85,0.00,CLR,,0.00,0.0,WeatherDisplay:10.37,2013-01-19 13:09:00,
2013-01-19 07:14:00,35.2,31.1,29.78,SSW,200,0.0,0.0,85,0.00,CLR,,0.00,0.0,WeatherDisplay:10.37,2013-01-19 13:14:00,
2013-01-19 07:19:00,35.0,30.9,29.78,SSW,200,0.0,0.0,85,0.00,CLR,,0.00,0.0,WeatherDisplay:10.37,2013-01-19 13:19:00,
2013-01-19 07:24:00,34.7,30.7,29.78,SSW,200,0.0,0.0,85,0.00,CLR,,0.00,0.0,WeatherDisplay:10.37,2013-01-19 13:24:00,
2013-01-19 07:29:00,34.7,30.7,29.77,SSW,200,0.0,0.0,85,0.00,CLR,,0.00,0.0,WeatherDisplay:10.37,2013-01-19 13:29:00,
2013-01-19 07:34:00,34.9,31.1,29.77,SSW,200,0.0,1.1,86,0.00,CLR,,0.00,0.0,WeatherDisplay:10.37,2013-01-19 13:34:00,
2013-01-19 07:39:00,34.9,31.1,29.77,SSW,200,0.0,0.0,86,0.00,CLR,,0.00,0.0,WeatherDisplay:10.37,2013-01-19 13:39:00,
2013-01-19 07:44:00,34.9,31.1,29.77,SSW,200,0.0,0.0,86,0.00,CLR,,0.00,0.0,WeatherDisplay:10.37,2013-01-19 13:44:00,
2013-01-19 07:49:00,35.0,31.2,29.76,SSW,200,0.0,0.0,86,0.00,CLR,,0.00,5.0,WeatherDisplay:10.37,2013-01-19 13:49:00,
2013-01-19 07:54:00,35.0,30.9,29.76,SSW,200,0.0,1.1,85,0.00,CLR,,0.00,7.0,WeatherDisplay:10.37,2013-01-19 13:54:00,
2013-01-19 07:59:00,35.0,30.9,29.76,SSW,196,0.0,4.6,85,0.00,CLR,,0.00,9.0,WeatherDisplay:10.37,2013-01-19 13:59:00,
2013-01-19 08:04:00,35.0,30.9,29.76,SSW,196,0.0,1.2,85,0.00,CLR,,0.00,12.0,WeatherDisplay:10.37,2013-01-19 14:04:00,
2013-01-19 08:09:00,35.0,30.9,29.76,SSW,196,0.0,0.0,85,0.00,CLR,,0.00,16.0,WeatherDisplay:10.37,2013-01-19 14:09:00,
2013-01-19 08:14:00,35.2,31.1,29.76,SSW,196,0.1,1.2,85,0.00,CLR,,0.00,21.0,WeatherDisplay:10.37,2013-01-19 14:14:00,
2013-01-19 08:19:00,35.3,31.2,29.76,SSW,196,0.8,2.4,85,0.00,CLR,,0.00,23.0,WeatherDisplay:10.37,2013-01-19 14:19:00,
2013-01-19 08:24:00,35.5,31.4,29.76,SSW,196,0.0,0.0,85,0.00,CLR,,0.00,30.0,WeatherDisplay:10.37,2013-01-19 14:24:00,
2013-01-19 08:29:00,35.6,31.5,29.75,SSW,196,0.0,0.0,85,0.00,CLR,,0.00,33.0,WeatherDisplay:10.37,2013-01-19 14:29:00,
2013-01-19 08:34:00,35.8,31.4,29.75,SSW,196,0.0,0.0,84,0.00,CLR,,0.00,35.0,WeatherDisplay:10.37,2013-01-19 14:34:00,
2013-01-19 08:39:00,35.8,31.4,29.75,SSW,196,0.0,0.0,84,0.00,CLR,,0.00,37.0,WeatherDisplay:10.37,2013-01-19 14:39:00,
2013-01-19 08:44:00,35.9,31.5,29.75,SSW,196,0.0,0.0,84,0.00,CLR,,0.00,28.0,WeatherDisplay:10.37,2013-01-19 14:44:00,
2013-01-19 08:49:00,36.0,31.6,29.75,SSW,196,0.0,0.0,84,0.00,CLR,,0.00,37.0,WeatherDisplay:10.37,2013-01-19 14:49:00,
2013-01-19 08:54:00,36.0,31.6,29.75,SSW,196,0.0,0.0,84,0.00,CLR,,0.00,35.0,WeatherDisplay:10.37,2013-01-19 14:54:00,
2013-01-19 08:59:00,36.2,31.5,29.75,SSW,196,0.0,0.0,83,0.00,CLR,,0.00,28.0,WeatherDisplay:10.37,2013-01-19 14:59:00,
2013-01-19 09:04:00,36.5,31.5,29.75,SSW,192,1.7,4.6,82,0.00,CLR,,0.00,28.0,WeatherDisplay:10.37,2013-01-19 15:04:00,
2013-01-19 09:09:00,36.5,31.5,29.75,SSW,200,1.6,4.6,82,0.00,CLR,,0.00,46.0,WeatherDisplay:10.37,2013-01-19 15:09:00,
2013-01-19 09:14:00,36.6,31.3,29.75,SSW,200,3.7,6.0,81,0.00,CLR,,0.00,60.0,WeatherDisplay:10.37,2013-01-19 15:14:00,
2013-01-19 09:19:00,36.8,31.5,29.75,SSE,163,4.5,7.2,81,0.00,CLR,,0.00,81.0,WeatherDisplay:10.37,2013-01-19 15:19:00,
2013-01-19 09:24:00,36.8,31.5,29.75,SSW,198,5.1,6.9,81,0.00,CLR,,0.00,104.0,WeatherDisplay:10.37,2013-01-19 15:24:00,
2013-01-19 09:29:00,36.9,31.6,29.75,South,186,7.2,8.4,81,0.00,CLR,,0.00,116.0,WeatherDisplay:10.37,2013-01-19 15:29:00,
2013-01-19 09:34:00,36.9,31.6,29.74,South,186,3.2,5.8,81,0.00,CLR,,0.00,104.0,WeatherDisplay:10.37,2013-01-19 15:34:00,
2013-01-19 09:39:00,37.0,31.7,29.74,South,186,4.6,6.0,81,0.00,CLR,,0.00,81.0,WeatherDisplay:10.37,2013-01-19 15:39:00,
2013-01-19 09:44:00,37.0,31.7,29.74,South,183,5.5,10.4,81,0.00,CLR,,0.00,76.0,WeatherDisplay:10.37,2013-01-19 15:44:00,
2013-01-19 09:49:00,37.0,31.7,29.74,SSW,202,7.6,9.6,81,0.00,CLR,,0.00,91.0,WeatherDisplay:10.37,2013-01-19 15:49:00,
2013-01-19 09:54:00,37.2,31.6,29.74,SSW,205,5.0,9.2,80,0.00,CLR,,0.00,105.0,WeatherDisplay:10.37,2013-01-19 15:54:00,
2013-01-19 09:59:00,37.2,31.6,29.73,SSW,193,9.7,10.8,80,0.00,CLR,,0.00,114.0,WeatherDisplay:10.37,2013-01-19 15:59:00,
2013-01-19 10:04:00,37.3,31.7,29.73,SW,214,9.1,12.0,80,0.00,CLR,,0.00,118.0,WeatherDisplay:10.37,2013-01-19 16:04:00,
2013-01-19 10:10:00,37.5,31.9,29.73,SSW,204,10.7,15.0,80,0.00,CLR,,0.00,183.0,WeatherDisplay:10.37,2013-01-19 16:10:00,
2013-01-19 10:15:00,37.6,31.7,29.73,WSW,237,8.6,9.6,79,0.00,CLR,,0.00,199.0,WeatherDisplay:10.37,2013-01-19 16:15:00,
2013-01-19 10:20:00,37.9,32.0,29.73,SSW,207,14.1,16.1,79,0.00,CLR,,0.00,139.0,WeatherDisplay:10.37,2013-01-19 16:20:00,
2013-01-19 10:25:00,37.9,31.7,29.73,SSW,209,12.2,15.6,78,0.00,CLR,,0.00,155.0,WeatherDisplay:10.37,2013-01-19 16:25:00,
2013-01-19 10:30:00,38.0,31.7,29.72,SW,223,11.0,13.2,78,0.00,CLR,,0.00,151.0,WeatherDisplay:10.37,2013-01-19 16:30:00,
2013-01-19 10:35:00,38.3,32.0,29.72,SW,229,9.7,11.5,78,0.00,CLR,,0.00,357.0,WeatherDisplay:10.37,2013-01-19 16:35:00,
2013-01-19 10:40:00,38.9,32.3,29.72,SW,217,11.6,15.0,77,0.00,CLR,,0.00,206.0,WeatherDisplay:10.37,2013-01-19 16:40:00,
2013-01-19 10:45:00,39.2,31.9,29.71,SW,219,11.9,13.2,75,0.00,CLR,,0.00,330.0,WeatherDisplay:10.37,2013-01-19 16:45:00,
2013-01-19 10:50:00,40.1,32.5,29.71,SW,219,9.6,10.8,74,0.00,CLR,,0.00,510.0,WeatherDisplay:10.37,2013-01-19 16:50:00,
2013-01-19 10:55:00,40.5,32.5,29.71,SW,221,8.7,9.6,73,0.00,CLR,,0.00,243.0,WeatherDisplay:10.37,2013-01-19 16:55:00,
2013-01-19 11:00:00,40.6,32.3,29.71,SW,229,10.2,10.8,72,0.00,CLR,,0.00,211.0,WeatherDisplay:10.37,2013-01-19 17:00:00,
2013-01-19 11:05:00,40.5,32.2,29.71,SW,215,9.1,10.8,72,0.00,CLR,,0.00,197.0,WeatherDisplay:10.37,2013-01-19 17:05:00,
2013-01-19 11:10:00,40.6,32.3,29.71,SW,232,6.8,8.4,72,0.00,CLR,,0.00,167.0,WeatherDisplay:10.37,2013-01-19 17:10:00,
2013-01-19 11:15:00,40.6,32.3,29.70,SW,222,7.2,9.2,72,0.00,CLR,,0.00,295.0,WeatherDisplay:10.37,2013-01-19 17:15:00,
2013-01-19 11:20:00,41.2,32.5,29.70,SW,223,7.4,10.8,71,0.00,CLR,,0.00,469.0,WeatherDisplay:10.37,2013-01-19 17:20:00,
2013-01-19 11:25:00,41.5,32.4,29.70,West,277,6.2,7.2,70,0.00,CLR,,0.00,462.0,WeatherDisplay:10.37,2013-01-19 17:25:00,
2013-01-19 11:30:00,42.2,32.8,29.70,WSW,237,8.2,10.8,69,0.00,CLR,,0.00,529.0,WeatherDisplay:10.37,2013-01-19 17:30:00,
2013-01-19 11:35:00,42.3,32.8,29.70,SW,216,5.7,7.2,69,0.00,CLR,,0.00,411.0,WeatherDisplay:10.37,2013-01-19 17:35:00,
2013-01-19 11:40:00,42.6,32.8,29.70,WSW,248,5.4,6.9,68,0.00,CLR,,0.00,378.0,WeatherDisplay:10.37,2013-01-19 17:40:00,
2013-01-19 11:45:00,42.9,32.7,29.69,West,265,5.4,8.1,67,0.00,CLR,,0.00,345.0,WeatherDisplay:10.37,2013-01-19 17:45:00,
2013-01-19 11:50:00,43.6,33.0,29.69,SSW,212,4.3,6.0,66,0.00,CLR,,0.00,529.0,WeatherDisplay:10.37,2013-01-19 17:50:00,
2013-01-19 11:55:00,44.1,32.7,29.69,West,262,6.3,11.5,64,0.00,CLR,,0.00,526.0,WeatherDisplay:10.37,2013-01-19 17:55:00,
2013-01-19 12:00:00,44.6,32.8,29.69,WNW,287,6.3,11.5,63,0.00,CLR,,0.00,515.0,WeatherDisplay:10.37,2013-01-19 18:00:00,
2013-01-19 12:06:00,44.8,32.6,29.69,West,259,9.6,10.4,62,0.00,CLR,,0.00,561.0,WeatherDisplay:10.37,2013-01-19 18:06:00,
2013-01-19 12:11:00,44.6,32.4,29.69,WSW,246,8.2,13.2,62,0.00,CLR,,0.00,413.0,WeatherDisplay:10.37,2013-01-19 18:11:00,
2013-01-19 12:17:00,45.2,32.9,29.68,West,261,6.0,13.0,62,0.00,CLR,,0.00,476.0,WeatherDisplay:10.37,2013-01-19 18:17:00,
2013-01-19 12:22:00,45.4,32.7,29.68,West,276,8.1,10.8,61,0.00,CLR,,0.00,475.0,WeatherDisplay:10.37,2013-01-19 18:22:00,
2013-01-19 12:27:00,45.4,32.3,29.68,SW,217,8.0,8.4,60,0.00,CLR,,0.00,483.0,WeatherDisplay:10.37,2013-01-19 18:27:00,
2013-01-19 12:33:00,45.5,32.0,29.68,West,268,10.0,12.0,59,0.00,CLR,,0.00,441.0,WeatherDisplay:10.37,2013-01-19 18:33:00,
2013-01-19 12:38:00,45.7,32.6,29.68,SW,234,8.5,10.4,60,0.00,CLR,,0.00,360.0,WeatherDisplay:10.37,2013-01-19 18:38:00,
2013-01-19 12:43:00,45.8,32.3,29.68,WSW,242,11.4,15.6,59,0.00,CLR,,0.00,285.0,WeatherDisplay:10.37,2013-01-19 18:43:00,
2013-01-19 12:48:00,46.0,32.5,29.67,West,267,7.1,8.4,59,0.00,CLR,,0.00,301.0,WeatherDisplay:10.37,2013-01-19 18:48:00,
2013-01-19 12:53:00,46.5,32.5,29.67,West,265,9.5,16.1,58,0.00,CLR,,0.00,258.0,WeatherDisplay:10.37,2013-01-19 18:53:00,
2013-01-19 12:58:00,46.0,32.5,29.67,SW,218,8.4,12.7,59,0.00,CLR,,0.00,220.0,WeatherDisplay:10.37,2013-01-19 18:58:00,
2013-01-19 13:03:00,45.7,32.2,29.67,WSW,251,10.4,12.0,59,0.00,CLR,,0.00,292.0,WeatherDisplay:10.37,2013-01-19 19:03:00,
2013-01-19 13:09:00,45.8,32.7,29.67,West,271,4.9,9.2,60,0.00,CLR,,0.00,225.0,WeatherDisplay:10.37,2013-01-19 19:09:00,
2013-01-19 13:14:00,45.8,32.7,29.67,West,263,8.1,12.0,60,0.00,CLR,,0.00,202.0,WeatherDisplay:10.37,2013-01-19 19:14:00,
2013-01-19 13:19:00,45.7,32.6,29.67,West,266,8.5,11.5,60,0.00,CLR,,0.00,158.0,WeatherDisplay:10.37,2013-01-19 19:19:00,
2013-01-19 13:25:00,45.4,32.3,29.67,SW,230,6.7,9.6,60,0.00,CLR,,0.00,128.0,WeatherDisplay:10.37,2013-01-19 19:25:00,
2013-01-19 13:30:00,45.1,32.4,29.66,WSW,242,3.7,7.2,61,0.00,CLR,,0.00,151.0,WeatherDisplay:10.37,2013-01-19 19:30:00,
2013-01-19 13:35:00,45.1,32.4,29.66,WNW,285,6.2,7.2,61,0.00,CLR,,0.00,223.0,WeatherDisplay:10.37,2013-01-19 19:35:00,
2013-01-19 13:42:00,45.1,32.8,29.66,WSW,241,7.8,9.6,62,0.00,CLR,,0.00,162.0,WeatherDisplay:10.37,2013-01-19 19:42:00,
2013-01-19 13:47:00,44.9,32.7,29.66,WSW,246,7.8,9.6,62,0.00,CLR,,0.00,111.0,WeatherDisplay:10.37,2013-01-19 19:47:00,
2013-01-19 13:52:00,45.1,32.4,29.66,WSW,250,12.0,16.0,61,0.00,CLR,,0.00,130.0,WeatherDisplay:10.37,2013-01-19 19:52:00,
2013-01-19 13:57:00,44.9,32.3,29.66,WSW,242,12.0,18.0,61,0.00,CLR,,0.00,192.0,WeatherDisplay:10.37,2013-01-19 19:57:00,
2013-01-19 14:02:00,45.1,32.8,29.66,West,276,5.5,9.6,62,0.00,CLR,,0.00,543.0,WeatherDisplay:10.37,2013-01-19 20:02:00,
2013-01-19 14:07:00,45.1,32.4,29.66,West,273,7.3,12.7,61,0.00,CLR,,0.00,132.0,WeatherDisplay:10.37,2013-01-19 20:07:00,
2013-01-19 14:13:00,45.1,32.8,29.66,WSW,251,12.0,13.2,62,0.00,CLR,,0.00,151.0,WeatherDisplay:10.37,2013-01-19 20:13:00,
2013-01-19 14:18:00,45.1,32.8,29.66,WSW,244,9.1,12.0,62,0.00,CLR,,0.00,153.0,WeatherDisplay:10.37,2013-01-19 20:18:00,
2013-01-19 14:23:00,44.8,32.6,29.66,SW,234,8.8,10.4,62,0.00,CLR,,0.00,77.0,WeatherDisplay:10.37,2013-01-19 20:23:00,
2013-01-19 14:28:00,44.6,32.4,29.66,WNW,284,5.2,6.0,62,0.00,CLR,,0.00,88.0,WeatherDisplay:10.37,2013-01-19 20:28:00,
2013-01-19 14:33:00,44.5,32.7,29.66,WSW,242,7.4,10.4,63,0.00,CLR,,0.00,181.0,WeatherDisplay:10.37,2013-01-19 20:33:00,
2013-01-19 14:38:00,44.8,32.6,29.66,SW,220,6.8,10.4,62,0.00,CLR,,0.00,120.0,WeatherDisplay:10.37,2013-01-19 20:38:00,
2013-01-19 14:44:00,44.9,32.7,29.65,West,259,8.7,12.0,62,0.00,CLR,,0.00,183.0,WeatherDisplay:10.37,2013-01-19 20:44:00,
2013-01-19 14:49:00,45.2,32.5,29.65,WSW,249,5.8,10.4,61,0.00,CLR,,0.00,258.0,WeatherDisplay:10.37,2013-01-19 20:49:00,
2013-01-19 14:54:00,45.4,32.7,29.65,SW,232,8.3,15.6,61,0.00,CLR,,0.00,102.0,WeatherDisplay:10.37,2013-01-19 20:54:00,
2013-01-19 14:59:00,45.2,32.5,29.65,WSW,248,7.8,10.8,61,0.00,CLR,,0.00,88.0,WeatherDisplay:10.37,2013-01-19 20:59:00,
2013-01-19 15:04:00,45.1,32.8,29.66,WSW,240,6.9,9.2,62,0.00,SCT,,0.00,114.0,WeatherDisplay:10.37,2013-01-19 21:04:00,
2013-01-19 15:09:00,45.1,32.8,29.66,WSW,257,7.5,10.8,62,0.00,SCT,,0.00,113.0,WeatherDisplay:10.37,2013-01-19 21:09:00,
2013-01-19 15:14:00,45.1,32.8,29.67,SW,234,11.2,15.0,62,0.00,SCT,,0.00,105.0,WeatherDisplay:10.37,2013-01-19 21:14:00,
2013-01-19 15:19:00,45.1,32.8,29.67,West,264,6.8,10.8,62,0.00,SCT,,0.00,102.0,WeatherDisplay:10.37,2013-01-19 21:19:00,
2013-01-19 15:24:00,44.9,32.7,29.67,WNW,289,7.3,12.0,62,0.00,CLR,,0.00,116.0,WeatherDisplay:10.37,2013-01-19 21:24:00,
2013-01-19 15:29:00,44.9,32.7,29.67,WSW,258,9.6,13.2,62,0.00,CLR,,0.00,86.0,WeatherDisplay:10.37,2013-01-19 21:29:00,
2013-01-19 15:34:00,45.1,32.8,29.68,West,269,6.3,12.0,62,0.00,CLR,,0.00,79.0,WeatherDisplay:10.37,2013-01-19 21:34:00,
2013-01-19 15:39:00,45.4,31.9,29.68,WNW,302,14.1,19.6,59,0.00,CLR,,0.00,160.0,WeatherDisplay:10.37,2013-01-19 21:39:00,
2013-01-19 15:44:00,45.4,31.5,29.68,WNW,288,13.5,24.0,58,0.00,CLR,,0.00,95.0,WeatherDisplay:10.37,2013-01-19 21:44:00,
2013-01-19 15:49:00,45.1,31.6,29.68,WNW,283,9.1,17.3,59,0.00,CLR,,0.00,74.0,WeatherDisplay:10.37,2013-01-19 21:49:00,
2013-01-19 15:55:00,44.9,31.8,29.68,West,261,8.4,10.8,60,0.00,CLR,,0.00,60.0,WeatherDisplay:10.37,2013-01-19 21:55:00,
2013-01-19 16:00:00,44.6,31.6,29.68,West,263,12.7,19.6,60,0.00,CLR,,0.00,62.0,WeatherDisplay:10.37,2013-01-19 22:00:00,
2013-01-19 16:06:00,44.2,31.2,29.68,WNW,286,16.6,26.4,60,0.00,SCT,,0.00,47.0,WeatherDisplay:10.37,2013-01-19 22:06:00,
2013-01-19 16:11:00,43.9,29.2,29.68,WNW,300,15.1,19.6,56,0.00,SCT,,0.00,63.0,WeatherDisplay:10.37,2013-01-19 22:11:00,
2013-01-19 16:16:00,43.5,29.7,29.69,West,277,16.8,21.6,58,0.00,SCT,,0.00,46.0,WeatherDisplay:10.37,2013-01-19 22:16:00,
2013-01-19 16:23:00,43.1,29.7,29.69,WNW,294,12.4,18.4,59,0.00,BKN,,0.00,35.0,WeatherDisplay:10.37,2013-01-19 22:23:00,
2013-01-19 16:28:00,42.8,29.9,29.69,West,260,9.4,15.0,60,0.00,BKN,,0.00,26.0,WeatherDisplay:10.37,2013-01-19 22:28:00,
2013-01-19 16:34:00,42.5,30.0,29.69,NW,306,18.1,24.2,61,0.00,BKN,,0.00,18.0,WeatherDisplay:10.37,2013-01-19 22:34:00,
2013-01-19 16:39:00,42.2,29.7,29.69,WNW,290,12.6,18.4,61,0.00,BKN,,0.00,11.0,WeatherDisplay:10.37,2013-01-19 22:39:00,
2013-01-19 16:44:00,42.1,30.0,29.69,WNW,294,11.6,17.3,62,0.00,OVC,,0.00,5.0,WeatherDisplay:10.37,2013-01-19 22:44:00,
2013-01-19 16:49:00,41.8,29.7,29.70,NW,308,17.1,19.2,62,0.00,OVC,,0.00,5.0,WeatherDisplay:10.37,2013-01-19 22:49:00,
2013-01-19 16:54:00,41.5,29.4,29.70,WNW,301,11.8,25.2,62,0.00,OVC,,0.00,0.0,WeatherDisplay:10.37,2013-01-19 22:54:00,
2013-01-19 16:59:00,41.3,29.3,29.70,West,279,14.0,18.4,62,0.00,OVC,,0.00,0.0,WeatherDisplay:10.37,2013-01-19 22:59:00,
2013-01-19 17:04:00,41.2,29.2,29.70,WSW,255,14.0,21.6,62,0.00,BKN,,0.00,0.0,WeatherDisplay:10.37,2013-01-19 23:04:00,
2013-01-19 17:10:00,41.1,29.1,29.70,West,266,13.9,27.6,62,0.00,BKN,,0.00,0.0,WeatherDisplay:10.37,2013-01-19 23:10:00,
2013-01-19 17:15:00,40.9,28.9,29.70,NW,311,12.3,15.6,62,0.00,BKN,,0.00,0.0,WeatherDisplay:10.37,2013-01-19 23:15:00,
2013-01-19 17:20:00,40.8,27.2,29.70,WNW,282,16.1,24.0,58,0.00,BKN,,0.00,0.0,WeatherDisplay:10.37,2013-01-19 23:20:00,
2013-01-19 17:25:00,40.6,27.0,29.70,West,277,18.1,26.4,58,0.00,BKN,,0.00,0.0,WeatherDisplay:10.37,2013-01-19 23:25:00,
2013-01-19 17:30:00,40.5,26.9,29.70,West,279,12.6,20.7,58,0.00,BKN,,0.00,0.0,WeatherDisplay:10.37,2013-01-19 23:30:00,
2013-01-19 17:35:00,40.2,27.0,29.70,West,259,14.8,20.7,59,0.00,BKN,,0.00,0.0,WeatherDisplay:10.37,2013-01-19 23:35:00,
2013-01-19 17:40:00,40.1,26.1,29.70,WNW,295,13.5,20.4,57,0.00,SCT,,0.00,0.0,WeatherDisplay:10.37,2013-01-19 23:40:00,
2013-01-19 17:46:00,39.9,25.0,29.70,WNW,286,18.7,32.4,55,0.00,SCT,,0.00,0.0,WeatherDisplay:10.37,2013-01-19 23:46:00,
2013-01-19 17:51:00,39.9,24.1,29.70,WNW,282,13.4,21.6,53,0.00,SCT,,0.00,0.0,WeatherDisplay:10.37,2013-01-19 23:51:00,
2013-01-19 17:56:00,39.8,24.0,29.70,SW,236,14.9,18.4,53,0.00,SCT,,0.00,0.0,WeatherDisplay:10.37,2013-01-19 23:56:00,
2013-01-19 18:01:00,39.3,24.0,29.70,West,278,8.5,13.2,54,0.00,SCT,,0.00,0.0,WeatherDisplay:10.37,2013-01-20 00:01:00,
2013-01-19 18:06:00,38.8,22.7,29.70,WNW,292,14.0,21.9,52,0.00,CLR,,0.00,0.0,WeatherDisplay:10.37,2013-01-20 00:06:00,
2013-01-19 18:11:00,38.5,21.9,29.70,WSW,237,14.7,18.4,51,0.00,CLR,,0.00,0.0,WeatherDisplay:10.37,2013-01-20 00:11:00,
2013-01-19 18:17:00,38.2,21.2,29.69,West,262,17.4,21.9,50,0.00,CLR,,0.00,0.0,WeatherDisplay:10.37,2013-01-20 00:17:00,
2013-01-19 18:22:00,37.8,20.8,29.69,WSW,244,10.2,16.1,50,0.00,SCT,,0.00,0.0,WeatherDisplay:10.37,2013-01-20 00:22:00,
2013-01-19 18:27:00,37.5,20.5,29.69,West,259,18.4,25.3,50,0.00,SCT,,0.00,0.0,WeatherDisplay:10.37,2013-01-20 00:27:00,
2013-01-19 18:33:00,36.9,17.0,29.70,West,279,19.1,30.0,44,0.00,SCT,,0.00,0.0,WeatherDisplay:10.37,2013-01-20 00:33:00,
2013-01-19 18:38:00,36.5,16.1,29.70,SSW,211,22.5,28.8,43,0.00,SCT,,0.00,0.0,WeatherDisplay:10.37,2013-01-20 00:38:00,
2013-01-19 18:43:00,35.6,12.5,29.70,WNW,296,28.1,38.4,38,0.00,SCT,,0.00,0.0,WeatherDisplay:10.37,2013-01-20 00:43:00,
2013-01-19 18:48:00,34.9,13.0,29.72,WNW,297,20.5,31.2,40,0.00,SCT,,0.00,0.0,WeatherDisplay:10.37,2013-01-20 00:48:00,
2013-01-19 18:53:00,34.1,13.4,29.72,West,265,21.7,32.2,42,0.00,SCT,,0.00,0.0,WeatherDisplay:10.37,2013-01-20 00:53:00,
2013-01-19 18:58:00,33.1,16.0,29.72,West,281,20.2,29.9,49,0.00,SCT,,0.00,0.0,WeatherDisplay:10.37,2013-01-20 00:58:00,
2013-01-19 19:03:00,32.5,17.2,29.74,WNW,282,11.9,19.2,53,0.00,CLR,,0.00,0.0,WeatherDisplay:10.37,2013-01-20 01:03:00,
2013-01-19 19:08:00,31.9,16.7,29.74,WSW,257,19.9,24.0,53,0.00,CLR,,0.00,0.0,WeatherDisplay:10.37,2013-01-20 01:08:00,
2013-01-19 19:13:00,30.0,12.2,29.74,WNW,288,13.5,21.9,47,0.00,CLR,,0.00,0.0,WeatherDisplay:10.37,2013-01-20 01:13:00,
2013-01-19 19:18:00,28.5,11.3,29.77,WNW,290,25.3,36.0,48,0.00,CLR,,0.00,0.0,WeatherDisplay:10.37,2013-01-20 01:18:00,
2013-01-19 19:23:00,27.6,10.9,29.77,NW,311,19.4,30.0,49,0.00,BKN,,0.00,0.0,WeatherDisplay:10.37,2013-01-20 01:23:00,
2013-01-19 19:28:00,26.9,11.2,29.77,WNW,291,18.3,31.2,51,0.00,BKN,,0.00,0.0,WeatherDisplay:10.37,2013-01-20 01:28:00,
2013-01-19 19:34:00,26.3,11.0,29.79,West,279,16.0,20.7,52,0.00,BKN,,0.00,0.0,WeatherDisplay:10.37,2013-01-20 01:34:00,
2013-01-19 19:39:00,25.7,11.3,29.79,SW,236,16.1,24.0,54,0.00,BKN,,0.00,0.0,WeatherDisplay:10.37,2013-01-20 01:39:00,
2013-01-19 19:44:00,25.0,11.5,29.81,NW,317,17.0,27.6,56,0.00,BKN,,0.00,0.0,WeatherDisplay:10.37,2013-01-20 01:44:00,
2013-01-19 19:49:00,24.7,11.6,29.81,WNW,284,12.8,23.0,57,0.00,BKN,,0.00,0.0,WeatherDisplay:10.37,2013-01-20 01:49:00,
2013-01-19 19:54:00,24.2,11.1,29.81,WNW,285,18.8,32.2,57,0.00,BKN,,0.00,0.0,WeatherDisplay:10.37,2013-01-20 01:54:00,
2013-01-19 20:00:00,23.5,10.5,29.82,West,267,24.4,31.1,57,0.00,BKN,,0.00,0.0,WeatherDisplay:10.37,2013-01-20 02:00:00,
2013-01-19 20:05:00,23.0,9.6,29.82,WNW,282,26.2,36.0,56,0.00,BKN,,0.00,0.0,WeatherDisplay:10.37,2013-01-20 02:05:00,
2013-01-19 20:11:00,22.5,9.1,29.82,WNW,292,20.3,40.8,56,0.00,BKN,,0.00,0.0,WeatherDisplay:10.37,2013-01-20 02:11:00,
2013-01-19 20:16:00,22.1,8.8,29.84,NW,324,22.9,26.4,56,0.00,BKN,,0.00,0.0,WeatherDisplay:10.37,2013-01-20 02:16:00,
2013-01-19 20:22:00,21.4,7.3,29.84,WNW,297,20.0,30.0,54,0.00,SCT,,0.00,0.0,WeatherDisplay:10.37,2013-01-20 02:22:00,
2013-01-19 20:28:00,21.0,6.9,29.84,WSW,254,22.5,35.7,54,0.00,SCT,,0.00,0.0,WeatherDisplay:10.37,2013-01-20 02:28:00,
2013-01-19 20:34:00,20.6,7.4,29.86,NW,304,20.3,27.6,56,0.00,SCT,,0.00,0.0,WeatherDisplay:10.37,2013-01-20 02:34:00,
2013-01-19 20:39:00,20.2,7.8,29.86,West,281,17.1,27.6,58,0.00,SCT,,0.00,0.0,WeatherDisplay:10.37,2013-01-20 02:39:00,
2013-01-19 20:44:00,20.2,8.5,29.86,West,279,12.8,18.4,60,0.00,BKN,,0.00,0.0,WeatherDisplay:10.37,2013-01-20 02:44:00,
2013-01-19 20:49:00,19.9,8.2,29.87,WNW,287,15.3,18.4,60,0.00,BKN,,0.00,0.0,WeatherDisplay:10.37,2013-01-20 02:49:00,
2013-01-19 20:54:00,19.5,8.2,29.87,SW,220,14.1,21.9,61,0.00,BKN,,0.00,0.0,WeatherDisplay:10.37,2013-01-20 02:54:00,
2013-01-19 20:59:00,18.9,7.3,29.87,NNW,328,13.0,31.2,60,0.01,RA,,0.01,0.0,WeatherDisplay:10.37,2013-01-20 02:59:00,
2013-01-19 21:05:00,18.1,7.3,29.89,WNW,298,13.2,19.6,62,0.01,BKN,,0.01,0.0,WeatherDisplay:10.37,2013-01-20 03:05:00,
2013-01-19 21:10:00,17.8,6.6,29.89,West,273,20.6,24.2,61,0.01,BKN,,0.01,0.0,WeatherDisplay:10.37,2013-01-20 03:10:00,
2013-01-19 21:15:00,17.5,4.8,29.90,NW,306,12.9,24.2,57,0.01,BKN,,0.01,0.0,WeatherDisplay:10.37,2013-01-20 03:15:00,
2013-01-19 21:20:00,17.0,2.8,29.90,WNW,298,19.8,28.8,53,0.01,BKN,,0.01,0.0,WeatherDisplay:10.37,2013-01-20 03:20:00,
2013-01-19 21:25:00,16.7,2.5,29.90,NW,319,21.3,30.0,53,0.01,SCT,,0.01,0.0,WeatherDisplay:10.37,2013-01-20 03:25:00,
2013-01-19 21:30:00,16.2,2.8,29.92,WNW,300,17.4,23.0,55,0.01,SCT,,0.01,0.0,WeatherDisplay:10.37,2013-01-20 03:30:00,
2013-01-19 21:35:00,15.7,3.1,29.92,WNW,284,18.4,26.5,57,0.01,SCT,,0.01,0.0,WeatherDisplay:10.37,2013-01-20 03:35:00,
2013-01-19 21:40:00,15.6,3.8,29.92,WNW,290,8.9,15.0,59,0.01,SCT,,0.01,0.0,WeatherDisplay:10.37,2013-01-20 03:40:00,
2013-01-19 21:45:00,15.2,3.1,29.93,West,280,12.8,17.3,58,0.01,SCT,,0.01,0.0,WeatherDisplay:10.37,2013-01-20 03:45:00,
2013-01-19 21:51:00,14.8,1.5,29.93,NNW,333,19.2,23.0,55,0.01,SCT,,0.01,0.0,WeatherDisplay:10.37,2013-01-20 03:51:00,
2013-01-19 21:56:00,14.3,0.3,29.93,WNW,290,12.7,25.3,53,0.00,SCT,,0.01,0.0,WeatherDisplay:10.37,2013-01-20 03:56:00,
2013-01-19 22:01:00,14.0,0.4,29.95,WNW,299,16.7,24.2,54,0.00,SCT,,0.01,0.0,WeatherDisplay:10.37,2013-01-20 04:01:00,
2013-01-19 22:06:00,13.5,-0.1,29.95,WNW,292,21.9,25.3,54,0.00,SCT,,0.01,0.0,WeatherDisplay:10.37,2013-01-20 04:06:00,
2013-01-19 22:12:00,12.9,0.1,29.95,NNW,347,20.1,25.3,56,0.00,SCT,,0.01,0.0,WeatherDisplay:10.37,2013-01-20 04:12:00,
2013-01-19 22:17:00,12.9,0.5,29.97,WNW,284,12.7,15.0,57,0.00,SCT,,0.01,0.0,WeatherDisplay:10.37,2013-01-20 04:17:00,
2013-01-19 22:22:00,12.8,0.8,29.97,WNW,298,14.7,24.2,58,0.00,SCT,,0.01,0.0,WeatherDisplay:10.37,2013-01-20 04:22:00,
2013-01-19 22:27:00,12.4,0.0,29.97,WNW,301,17.0,28.0,57,0.00,SCT,,0.01,0.0,WeatherDisplay:10.37,2013-01-20 04:27:00,
2013-01-19 22:32:00,12.4,-0.3,29.99,WNW,298,22.2,30.0,56,0.00,SCT,,0.01,0.0,WeatherDisplay:10.37,2013-01-20 04:32:00,
2013-01-19 22:37:00,12.1,-1.0,29.99,WNW,294,16.2,23.0,55,0.00,SCT,,0.01,0.0,WeatherDisplay:10.37,2013-01-20 04:37:00,
2013-01-19 22:42:00,11.7,-1.0,29.99,West,264,9.7,16.1,56,0.00,SCT,,0.01,0.0,WeatherDisplay:10.37,2013-01-20 04:42:00,
2013-01-19 22:47:00,11.6,-0.7,30.00,West,273,19.1,24.0,57,0.00,SCT,,0.01,0.0,WeatherDisplay:10.37,2013-01-20 04:47:00,
2013-01-19 22:53:00,11.2,-1.5,30.00,WNW,301,15.2,20.7,56,0.00,SCT,,0.01,0.0,WeatherDisplay:10.37,2013-01-20 04:53:00,
2013-01-19 22:58:00,11.1,-1.2,30.00,WNW,294,12.0,19.2,57,0.00,SCT,,0.01,0.0,WeatherDisplay:10.37,2013-01-20 04:58:00,
2013-01-19 23:01:00,11.1,-1.2,30.02,West,271,10.7,18.0,57,0.00,SCT,,0.01,0.0,WeatherDisplay:10.37,2013-01-20 05:01:00,
2013-01-19 23:03:00,11.1,-1.2,30.02,NW,312,15.0,30.0,57,0.00,SCT,,0.01,0.0,WeatherDisplay:10.37,2013-01-20 05:03:00,
2013-01-19 23:08:00,10.9,-1.4,30.02,West,281,12.2,20.7,57,0.00,SCT,,0.01,0.0,WeatherDisplay:10.37,2013-01-20 05:08:00,
2013-01-19 23:13:00,10.4,-1.5,30.02,NW,323,19.5,28.8,58,0.00,BKN,,0.01,0.0,WeatherDisplay:10.37,2013-01-20 05:13:00,
2013-01-19 23:18:00,10.0,-1.9,30.03,WNW,286,16.9,28.8,58,0.00,BKN,,0.01,0.0,WeatherDisplay:10.37,2013-01-20 05:18:00,
2013-01-19 23:23:00,10.0,-1.9,30.03,WNW,303,13.9,20.7,58,0.00,SCT,,0.01,0.0,WeatherDisplay:10.37,2013-01-20 05:23:00,
2013-01-19 23:28:00,10.0,-1.1,30.03,WNW,292,9.2,17.3,60,0.00,SCT,,0.01,0.0,WeatherDisplay:10.37,2013-01-20 05:28:00,
2013-01-19 23:33:00,9.9,-1.2,30.05,WNW,290,18.8,28.8,60,0.00,SCT,,0.01,0.0,WeatherDisplay:10.37,2013-01-20 05:33:00,
2013-01-19 23:38:00,9.7,-1.4,30.05,NW,322,11.5,21.9,60,0.00,SCT,,0.01,0.0,WeatherDisplay:10.37,2013-01-20 05:38:00,
2013-01-19 23:43:00,9.5,-1.6,30.05,WNW,297,9.7,16.1,60,0.00,CLR,,0.01,0.0,WeatherDisplay:10.37,2013-01-20 05:43:00,
2013-01-19 23:48:00,9.3,-1.8,30.06,WNW,284,13.9,20.4,60,0.00,CLR,,0.01,0.0,WeatherDisplay:10.37,2013-01-20 05:48:00,
2013-01-19 23:53:00,9.2,-2.6,30.06,WNW,283,13.8,20.7,58,0.00,CLR,,0.01,0.0,WeatherDisplay:10.37,2013-01-20 05:53:00,
2013-01-19 23:58:00,9.0,-2.8,30.06,NNW,332,15.0,16.1,58,0.00,CLR,,0.01,0.0,WeatherDisplay:10.37,2013-01-20 05:58:00,